Location: Crescent
(42.8242°N, 73.7329°W)
Time: 00:34:57
(UTC+00:00)

Tiros 1 - Pass Details

Date: 19 February 2026
Orbit: 618 x 649 km, 48.4° (Epoch: 10 March)

Event Time Altitude Azimuth Distance (km) Brightness Sun altitude
Rises 13:32:52 0° 245° (WSW) 2,911 10.2 17.0°
Reaches altitude 10° 13:35:11 10° 246° (WSW) 2,000 9.4 17.3°
Maximum altitude 13:39:48 83° 335° (NNW) 634 7.4 18.0°
Drops below altitude 10° 13:44:23 10° 63° (ENE) 1,990 10.1 18.7°
Sets 13:46:41 0° 65° (ENE) 2,894 10.9 19.0°
